Home > Weather > Tromsø > Past weeks

Flag for Norway Weather for the Past 2 Weeks in Tromsø, Norway

Now
25 °F

Passing clouds.


Feels Like: 20 °F
Forecast: 27 / 33 °F
Wind: 3 mph from South

Location: Tromso / Langnes

Current Time: Feb 11, 2016 at 4:27:26 AM

Latest Report: Feb 11, 2016 at 3:20 AM


Visibility: N/A

Pressure: 29.36 "Hg

Humidity: 93%

Dew point: 23 °F

Location of TromsøLocation

Historic Weather in Tromsø — Graph

°F

Tromsø Temperature Yesterday

Maximum temperature yesterday: 32 °F (at 12:20 AM)
Minimum temperature yesterday: 23 °F (at 11:50 PM)
Average temperature yesterday: 29 °F

High & Low Weather Summary for the Past Weeks

 TemperatureHumidityPressure
High36 °F (Jan 27, 1:20 AM)100% (Jan 27, 11:50 PM)29.65 "Hg (Jan 27, 11:50 PM)
Low16 °F (Feb 6, 6:20 AM)52% (Jan 27, 2:20 PM)28.32 "Hg (Jan 30, 8:20 AM)
Average30 °F84%29.00 "Hg
* Reported Jan 27 1:20 AM — Feb 11 1:50 AM, Tromsø, Weather by CustomWeather, © 2016

Note: Actual official high and low records may vary slightly from our data, if they occured in-between our weather recording intervals... More about our weather records

Advertising

Tromsø Weather History for the Previous 24 Hours

 ConditionsComfort  
Time TempWeatherWind HumidityBarometerVisibility
1:50 AM
Thu, Feb 11
25 °FPassing clouds.3 mph100%29.36 "HgN/A
12:50 AM25 °FPassing clouds.2 mph86%29.36 "HgN/A
11:50 PM
Wed, Feb 10
23 °FPassing clouds.1 mph93%29.36 "HgN/A
11:20 PM25 °FPassing clouds.1 mph93%29.36 "HgN/A
10:20 PM25 °FPassing clouds.2 mph93%29.36 "HgN/A
9:50 PM25 °FPassing clouds.2 mph86%29.36 "HgN/A
9:20 PM25 °FPassing clouds.3 mph93%29.36 "HgN/A
8:50 PM27 °FPassing clouds.1 mph93%29.36 "HgN/A
8:20 PM28 °FPassing clouds.6 mph86%29.33 "HgN/A
7:50 PM28 °FPartly cloudy.3 mph93%29.33 "HgN/A
7:20 PM28 °FPartly cloudy.2 mph86%29.33 "HgN/A
6:50 PM27 °FPassing clouds.2 mph93%29.33 "HgN/A
6:20 PM28 °FPartly cloudy.3 mph93%29.33 "HgN/A
5:50 PM27 °FPassing clouds.2 mph100%29.33 "HgN/A
5:20 PM27 °FLight mixture of precip. Partly cloudy.5 mph86%29.30 "HgN/A
4:50 PM27 °FLight mixture of precip. Passing clouds.3 mph93%29.30 "HgN/A
4:20 PM28 °FPassing clouds.2 mph86%29.30 "HgN/A
3:50 PM28 °FPartly cloudy.2 mph93%29.30 "HgN/A
3:20 PM28 °FPassing clouds.1 mph93%29.27 "HgN/A
2:50 PM28 °FScattered clouds.3 mph86%29.27 "HgN/A
1:50 PM30 °FScattered clouds.6 mph86%29.24 "HgN/A
1:20 PM30 °FScattered clouds.6 mph86%29.24 "HgN/A
12:50 PM27 °FScattered clouds.6 mph93%29.24 "HgN/A
12:20 PM30 °FScattered clouds.5 mph86%29.24 "HgN/A
11:20 AM30 °FLight snow. Partly sunny.5 mph93%29.21 "HgN/A
10:50 AM30 °FPartly sunny.3 mph86%29.21 "HgN/A
9:50 AM30 °FLight mixture of precip. Broken clouds.5 mph86%29.18 "HgN/A
9:20 AM30 °FPartly sunny.5 mph86%29.18 "HgN/A
8:50 AM30 °FPartly sunny.5 mph86%29.15 "HgN/A
8:20 AM30 °FPartly cloudy.6 mph86%29.15 "HgN/A
7:50 AM30 °FPartly cloudy.3 mph86%29.12 "HgN/A
7:20 AM30 °FPassing clouds.6 mph86%29.12 "HgN/A
6:50 AM30 °FPartly cloudy.7 mph86%29.12 "HgN/A
6:20 AM30 °FSnow flurries. Partly cloudy.6 mph86%29.12 "HgN/A
5:20 AM30 °FSnow flurries. Partly cloudy.7 mph86%29.09 "Hg4 mi
4:20 AM30 °FSnow flurries. Passing clouds.6 mph86%29.09 "HgN/A
Weather by CustomWeather, © 2016

See weather overviewHow to use our weather pages